FW3809 Weather Reports


Display with metric or nautical units.
time (UTC)temp
F
wind
direction
speed
MPH
gust
MPH
rain 1hr
in
rain 24hr
in
rain mn
in
humidity
%
barometer
mb
20260504205923 82 156 5.0 12.0 0.00 0.00 0.00 63 1011.6
20260504205358 82 55 5.0 10.0 0.00 0.00 0.00 65 1011.6
20260504204831 82 145 5.0 14.0 0.00 0.00 0.00 64 1011.7
20260504204306 82 204 6.0 14.0 0.00 0.00 0.00 64 1011.8
20260504203738 82 108 5.0 13.0 0.00 0.00 0.00 64 1011.7
20260504203235 83 193 4.0 13.0 0.00 0.00 0.00 63 1011.8
20260504202738 82 191 5.0 11.0 0.00 0.00 0.00 64 1011.9
20260504202229 82 185 6.0 15.0 0.00 0.00 0.00 63 1011.9
20260504201705 82 195 5.0 15.0 0.00 0.00 0.00 64 1012.1
20260504201201 82 187 6.0 12.0 0.00 0.00 0.00 64 1012.2
20260504200657 82 235 6.0 12.0 0.00 0.00 0.00 63 1012.4
20260504200132 83 219 4.0 9.0 0.00 0.00 0.00 62 1012.3
20260504195604 83 201 3.0 8.0 0.00 0.00 0.00 62 1012.4
20260504195101 83 179 4.0 13.0 0.00 0.00 0.00 64 1012.5
20260504194535 83 205 6.0 13.0 0.00 0.00 0.00 62 1012.6
20260504194008 83 116 6.0 12.0 0.00 0.00 0.00 62 1012.7
20260504193506 83 246 6.0 14.0 0.00 0.00 0.00 62 1012.7
20260504192939 83 212 7.0 14.0 0.00 0.00 0.00 63 1012.8
20260504192436 82 139 7.0 16.0 0.00 0.00 0.00 62 1012.9
20260504191908 82 203 7.0 16.0 0.00 0.00 0.00 62 1012.9
20260504191405 82 210 6.0 14.0 0.00 0.00 0.00 62 1013.0
20260504190838 82 195 5.0 13.0 0.00 0.00 0.00 62 1013.1
20260504190334 82 158 5.0 13.0 0.00 0.00 0.00 62 1013.2
20260504185832 82 185 5.0 10.0 0.00 0.00 0.00 61 1013.2
20260504185305 82 204 5.0 10.0 0.00 0.00 0.00 62 1013.2
20260504184802 81 133 6.0 12.0 0.00 0.00 0.00 63 1013.3
20260504184235 82 212 6.0 12.0 0.00 0.00 0.00 62 1013.4
20260504183710 83 197 6.0 18.0 0.00 0.00 0.00 62 1013.3
20260504183148 81 196 5.0 13.0 0.00 0.00 0.00 63 1013.1
20260504183142 82 177 6.0 18.0 0.00 0.00 0.00 63 1013.2
20260504182139 80 185 8.0 17.0 0.00 0.00 0.00 64 1013.5
20260504182134 80 131 7.0 17.0 0.00 0.00 0.00 64 1013.3
20260504181104 81 197 7.0 15.0 0.00 0.00 0.00 63 1013.6
20260504180831 80 118 7.0 14.0 0.00 0.00 0.00 63 1013.7
20260504180330 80 247 8.0 14.0 0.00 0.00 0.00 64 1013.9
20260504175531 80 220 8.0 14.0 0.00 0.00 0.00 63 1013.9
20260504175026 80 192 7.0 15.0 0.00 0.00 0.00 63 1013.8
20260504174523 80 177 7.0 15.0 0.00 0.00 0.00 63 1014.1
20260504173958 79 215 7.0 16.0 0.00 0.00 0.00 63 1014.1
20260504173430 80 189 7.0 16.0 0.00 0.00 0.00 64 1013.9
20260504173158 80 108 6.0 14.0 0.00 0.00 0.00 64 1014.1
20260504172630 80 204 6.0 12.0 0.00 0.00 0.00 64 1014.3
20260504171858 80 214 7.0 16.0 0.00 0.00 0.00 64 1014.5
20260504171356 80 187 6.0 16.0 0.00 0.00 0.00 64 1014.4
20260504170828 80 212 6.0 14.0 0.00 0.00 0.00 65 1014.5
20260504170327 79 121 6.0 14.0 0.00 0.00 0.00 66 1014.6
20260504160306 76 218 6.0 13.0 0.00 0.00 0.00 70 1015.4
20260504150829 74 138 7.0 12.0 0.00 0.00 0.00 73 1015.5
20260504150559 74 200 7.0 14.0 0.00 0.00 0.00 72 1015.3
20260504141016 73 131 2.0 5.0 0.00 0.00 0.00 72 1015.5
20260504140450 72 190 2.0 6.0 0.00 0.00 0.00 71 1015.4
20260504130634 68 152 2.0 5.0 0.00 0.00 0.00 77 1015.6
20260504130110 67 160 2.0 5.0 0.00 0.00 0.00 78 1015.5
20260504110537 62 172 0.0 2.0 0.00 0.00 0.00 83 1015.0
20260504100158 63 173 0.0 2.0 0.00 0.00 0.00 80 1015.3
20260504081850 64 177 1.0 3.0 0.00 0.00 0.00 78 1015.9
20260504081554 64 177 1.0 3.0 0.00 0.00 0.00 77 1016.0
20260504080818 64 177 1.0 4.0 0.00 0.00 0.00 77 1016.0
20260504080316 64 177 1.0 4.0 0.00 0.00 0.00 77 1016.2
20260504060214 66 175 1.0 4.0 0.00 0.00 0.00 71 1017.5
20260504050456 67 161 2.0 6.0 0.00 0.00 0.00 68 1017.9
20260504050201 67 161 2.0 5.0 0.00 0.00 0.00 68 1017.8
20260504045427 67 161 1.0 5.0 0.00 0.00 0.00 68 1017.9
20260504044901 67 161 1.0 5.0 0.00 0.00 0.00 67 1018.0
20260504044334 67 161 2.0 5.0 0.00 0.00 0.00 67 1017.9
20260504043832 67 161 2.0 4.0 0.00 0.00 0.00 67 1018.0
20260504043305 67 161 2.0 6.0 0.00 0.00 0.00 67 1018.0
20260504042800 67 161 2.0 6.0 0.00 0.00 0.00 67 1018.0
20260504042258 68 156 1.0 5.0 0.00 0.00 0.00 67 1018.2
20260504041731 68 155 1.0 5.0 0.00 0.00 0.00 67 1018.1
20260504041221 68 155 1.0 5.0 0.00 0.00 0.00 66 1018.1
20260504040718 68 155 1.0 3.0 0.00 0.00 0.00 66 1018.0
20260504040446 68 155 1.0 5.0 0.00 0.00 0.00 66 1018.0
20260504035710 68 155 3.0 6.0 0.00 0.00 0.00 65 1018.1
20260504035213 69 155 3.0 6.0 0.00 0.00 0.00 65 1018.0
20260504034639 69 167 2.0 7.0 0.00 0.00 0.00 65 1018.1
20260504034137 69 143 2.0 7.0 0.00 0.00 0.00 65 1018.2
20260504033612 69 161 2.0 5.0 0.00 0.00 0.00 65 1018.1
20260504033314 69 161 4.0 9.0 0.00 0.00 0.00 65 1018.1
20260504032812 69 154 4.0 10.0 0.00 0.00 0.00 64 1018.1
20260504032016 69 106 4.0 10.0 0.00 0.00 0.00 64 1018.0
20260504031718 69 168 3.0 10.0 0.00 0.00 0.00 64 1018.0
20260504031219 69 144 4.0 10.0 0.00 0.00 0.00 64 1018.0
20260504030419 69 142 4.0 9.0 0.00 0.00 0.00 63 1017.8
20260504025853 70 149 4.0 9.0 0.00 0.00 0.00 63 1017.8
20260504025350 70 137 3.0 9.0 0.00 0.00 0.00 63 1017.8
20260504024824 70 141 4.0 9.0 0.00 0.00 0.00 63 1017.8
20260504024256 70 144 4.0 10.0 0.00 0.00 0.00 63 1017.9
20260504024024 70 134 4.0 10.0 0.00 0.00 0.00 62 1017.9
20260504023228 70 162 4.0 9.0 0.00 0.00 0.00 62 1017.9
20260504022931 71 160 5.0 10.0 0.00 0.00 0.00 62 1017.9
20260504022157 71 133 5.0 10.0 0.00 0.00 0.00 62 1017.8
20260504021631 71 174 5.0 10.0 0.00 0.00 0.00 61 1017.8
20260504021336 71 147 5.0 10.0 0.00 0.00 0.00 60 1017.7
20260504020602 71 120 5.0 12.0 0.00 0.00 0.00 60 1017.7
20260504020035 71 147 6.0 12.0 0.00 0.00 0.00 60 1017.7
20260504015511 72 150 5.0 12.0 0.00 0.00 0.00 59 1017.7
20260504015012 72 73 5.0 12.0 0.00 0.00 0.00 59 1017.7
20260504014446 72 129 5.0 11.0 0.00 0.00 0.00 58 1017.7
20260504013919 72 177 5.0 12.0 0.00 0.00 0.00 58 1017.7
20260504013355 72 126 6.0 12.0 0.00 0.00 0.00 57 1017.6
20260504013336 73 133 6.0 11.0 0.00 0.00 0.00 56 1017.5
20260504012327 73 156 5.0 11.0 0.00 0.00 0.00 56 1017.5
20260504011827 73 125 4.0 10.0 0.00 0.00 0.00 56 1017.4
20260504011324 73 162 5.0 12.0 0.00 0.00 0.00 55 1017.4
20260504010826 73 206 6.0 15.0 0.00 0.00 0.00 55 1017.4
20260504010306 73 143 6.0 15.0 0.00 0.00 0.00 55 1017.4
20260504005750 74 143 5.0 13.0 0.00 0.00 0.00 55 1017.3
20260504005459 74 164 4.0 10.0 0.00 0.00 0.00 54 1017.4
20260504004703 74 143 5.0 10.0 0.00 0.00 0.00 54 1017.4
20260504004139 74 156 4.0 10.0 0.00 0.00 0.00 53 1017.4
20260504003909 75 179 5.0 11.0 0.00 0.00 0.00 53 1017.4
20260504003134 75 131 5.0 11.0 0.00 0.00 0.00 53 1017.3
20260504002617 75 139 5.0 11.0 0.00 0.00 0.00 52 1017.4
20260504002055 76 132 5.0 11.0 0.00 0.00 0.00 51 1017.4
20260504001556 77 156 4.0 10.0 0.00 0.00 0.00 50 1017.3
20260504001040 77 150 5.0 12.0 0.00 0.00 0.00 50 1017.3
20260504000534 77 164 6.0 12.0 0.00 0.00 0.00 49 1017.4
20260504000033 77 147 6.0 14.0 0.00 0.00 0.00 49 1017.5
20260503235508 78 204 5.0 14.0 0.00 0.00 0.00 49 1017.5
20260503234949 78 123 6.0 12.0 0.00 0.00 0.00 48 1017.3
20260503234416 78 143 6.0 13.0 0.00 0.00 0.00 47 1017.4
20260503233850 79 158 5.0 9.0 0.00 0.00 0.00 46 1017.5
20260503233348 79 136 6.0 14.0 0.00 0.00 0.00 46 1017.6
20260503232842 79 162 5.0 14.0 0.00 0.00 0.00 45 1017.6
20260503232546 80 202 4.0 11.0 0.00 0.00 0.00 45 1017.7
20260503231750 80 121 4.0 10.0 0.00 0.00 0.00 43 1017.6
20260503231224 80 130 4.0 11.0 0.00 0.00 0.00 42 1017.5
20260503230658 80 127 5.0 12.0 0.00 0.00 0.00 43 1017.5
20260503230131 80 170 4.0 12.0 0.00 0.00 0.00 43 1017.6
20260503225629 80 139 3.0 10.0 0.00 0.00 0.00 42 1017.7
20260503225103 80 142 3.0 8.0 0.00 0.00 0.00 41 1017.7
20260503224537 80 156 4.0 9.0 0.00 0.00 0.00 42 1017.8
20260503224009 80 97 4.0 10.0 0.00 0.00 0.00 42 1017.8
20260503223737 80 131 4.0 10.0 0.00 0.00 0.00 42 1017.9
20260503222940 81 165 4.0 10.0 0.00 0.00 0.00 43 1017.8
20260503222429 81 123 4.0 10.0 0.00 0.00 0.00 41 1018.1
20260503221926 81 128 3.0 9.0 0.00 0.00 0.00 42 1018.2
20260503221401 81 150 5.0 10.0 0.00 0.00 0.00 41 1018.3
20260503220855 81 163 5.0 14.0 0.00 0.00 0.00 41 1018.1
20260503220352 81 162 5.0 14.0 0.00 0.00 0.00 41 1018.1
20260503215825 82 92 3.0 9.0 0.00 0.00 0.00 41 1018.1
20260503215301 83 134 3.0 8.0 0.00 0.00 0.00 41 1018.1
20260503214733 82 99 5.0 10.0 0.00 0.00 0.00 39 1018.1
20260503214233 82 128 4.0 10.0 0.00 0.00 0.00 39 1018.3
20260503213703 82 74 4.0 9.0 0.00 0.00 0.00 40 1018.5
20260503213200 83 104 3.0 8.0 0.00 0.00 0.00 39 1018.5
20260503212913 82 100 4.0 10.0 0.00 0.00 0.00 39 1018.6
20260503212416 82 106 3.0 10.0 0.00 0.00 0.00 41 1018.7
20260503212127 81 145 3.0 9.0 0.00 0.00 0.00 41 1018.8
20260503211103 82 166 3.0 10.0 0.00 0.00 0.00 40 1018.8
20260503210600 82 49 4.0 10.0 0.00 0.00 0.00 41 1018.8